Regional Weather Roundup
Issued by NWS Cleveland, OH

Home | Current Version | Previous Version | Text Only | Print | Product List | Glossary Off
Versions: 1 2 3 4 5 6 7 8 9 10 11 12 13 14 15 16 17 18 19 20 21 22 23 24 25 26 27 28 29 30 31 32 33 34 35 36 37 38 39 40 41 42 43 44 45 46 47 48 49 50

000
ASUS41 KCLE 181010
RWRCLE
OHIO REGIONAL WEATHER ROUNDUP
NATIONAL WEATHER SERVICE WILMINGTON, OH
500 AM EST MON DEC 18 2017

NOTE: "FAIR" INDICATES FEW OR NO CLOUDS BELOW 12,000 FEET WITH NO
SIGNIFICANT WEATHER AND/OR OBSTRUCTIONS TO VISIBILITY.

OHZ001>008-015>018-024>027-034-035-043-044-181100-
   NORTHWEST OHIO

CITY           SKY/WX    TMP DP  RH WIND       PRES   REMARKS
DEFIANCE       CLOUDY    38  34  85 S10       30.00S
FINDLAY        CLOUDY    39  33  79 SW12      30.01S
TOLEDO EXPRESS CLOUDY    39  36  89 SW9       29.99S
TOLEDO EXEC    CLOUDY    38  34  85 SW10      30.01S
LIMA           CLOUDY    38  36  92 S9        30.02F
$$

OHZ009>014-019>023-028>033-038-089-181100-
   NORTHEAST OHIO

CITY           SKY/WX    TMP DP  RH WIND       PRES   REMARKS
CLE-HOPKINS    CLOUDY    39  33  79 SW9       30.04F
CLE-LAKEFRONT  CLOUDY    41  32  70 S10       30.01F
CUY CO. ARPT   NOT AVBL
LORAIN-ELYRIA  CLOUDY    36  29  75 SW8       30.02F
ASHTABULA      CLOUDY    37  32  82 SW10      30.02F
AKRON-CANTON   CLOUDY    36  30  79 S8        30.04S
WOOSTER        CLOUDY    35  32  88 SW6       30.04F
MANSFIELD      CLOUDY    37  34  89 SW9       30.02F
YOUNGSTOWN     CLOUDY    37  31  78 S7        30.03F
$$

OHZ042-051>053-060>062-070>072-077>081-181100-
  SOUTHWEST OHIO

CITY           SKY/WX    TMP DP  RH WIND       PRES   REMARKS
CINC-COVINGTON FOG       41  41 100 S6        30.07F VSB 1/8
CINC-LUNKEN    CLOUDY    42  40  92 S7        30.10S
HAMILTON       CLOUDY    42  40  92 VRB3      30.09S
DAYTON         CLOUDY    39  39 100 S7        30.04F
WRIGHT-PAT AFB CLOUDY    41  40  99 SW8       30.05F
DAYTON GENERAL CLOUDY    41  38  89 S6        30.05S
WILMINGTON     CLOUDY    38  38 100 S8        30.06F
$$

OHZ036-037-039>041-045>050-054>059-063>069-073>076-082>088-181100-
  CENTRAL AND SOUTHEAST OHIO

CITY           SKY/WX    TMP DP  RH WIND       PRES   REMARKS
COLUMBUS       CLOUDY    39  37  92 S7        30.06F
OSU AIRPORT    CLOUDY    39  38  96 S6        30.06S
BOLTON FIELD   CLOUDY    39  37  94 S6        30.06F
RICKENBACK AFB CLOUDY    39  38  96 S7        30.06F
NEWARK         CLOUDY    39  36  89 S5        30.07S
MARION         CLOUDY    36  33  89 S7        30.04F
LANCASTER      CLOUDY    40  37  89 SW5       30.08F
ZANESVILLE     CLOUDY    39  34  82 S6        30.08S
NEW PHILLY     CLOUDY    36  32  85 VRB5      30.07F
$$




USA.gov is the U.S. government's official web portal to all federal, state and local government web resources and services.